Location: São Paulo
(23.5507°S, 46.6334°W)
Time: 07:12:58
(UTC-03:00)

Vanguard 2 Rocket - Pass Details

Date: 20 February 2026
Orbit: 553 x 3286 km, 32.9° (Epoch: 7 March)

Event Time Altitude Azimuth Distance (km) Brightness Sun altitude
Exits shadow 01:23:35 14° 120° (ESE) 2,915 9.8 -52.2°
Drops below altitude 10° 01:24:44 10° 117° (ESE) 3,320 10.1 -52.1°
Sets 01:28:48 0° 110° (ESE) 4,769 11.0 -51.7°
